DLH2273 LFMN-EDDM

Flight info

Callsign DLH2273
Flight time 1h 11m
Altitude 32000
Route BASIP DCT ANAKI DCT TAGIP DCT GUNGO DCT IVKAL T102 NINUR T101 BETOS BETOS1A
Aircraft A320/M-SDE3FGHIRWY/LB1

Departure

Time 2026-05-01 10:12
Airport Nice-Côte d'Azur Airport (LFMN)

Arrival

Time 2026-05-01 11:24
Airport Munich Airport (EDDM)
Time Latitude Longitude Altitude Speed Heading
2026-05-01 09:44 43.66417 7.21223 22 ft 0 kts 17°
2026-05-01 09:58 43.66410 7.21220 22 ft 1 kts 17°
2026-05-01 09:58 43.66401 7.21215 23 ft 1 kts
2026-05-01 09:59 43.66391 7.21216 23 ft 1 kts 341°
2026-05-01 09:59 43.66381 7.21220 22 ft 1 kts 348°
2026-05-01 09:59 43.66371 7.21223 24 ft 1 kts 348°
2026-05-01 09:59 43.66361 7.21226 23 ft 1 kts 348°
2026-05-01 10:00 43.66351 7.21229 22 ft 1 kts 348°
2026-05-01 10:00 43.66341 7.21231 22 ft 1 kts 348°
2026-05-01 10:00 43.66331 7.21234 22 ft 2 kts 315°
2026-05-01 10:00 43.66327 7.21239 24 ft 0 kts 285°
2026-05-01 10:02 43.66327 7.21235 22 ft 1 kts 284°
2026-05-01 10:02 43.66328 7.21222 22 ft 2 kts 275°
2026-05-01 10:03 43.66326 7.21210 24 ft 1 kts 256°
2026-05-01 10:03 43.66324 7.21195 22 ft 6 kts 257°
2026-05-01 10:03 43.66307 7.21044 22 ft 16 kts 252°
2026-05-01 10:03 43.66225 7.21011 22 ft 13 kts 169°
2026-05-01 10:04 43.66127 7.21035 22 ft 15 kts 170°
2026-05-01 10:04 43.66027 7.20995 22 ft 16 kts 227°
2026-05-01 10:04 43.65953 7.20891 22 ft 15 kts 225°
2026-05-01 10:04 43.65883 7.20800 22 ft 13 kts 220°
2026-05-01 10:05 43.65818 7.20717 22 ft 12 kts 225°
2026-05-01 10:05 43.65762 7.20639 22 ft 11 kts 225°
2026-05-01 10:05 43.65706 7.20562 22 ft 14 kts 225°
2026-05-01 10:05 43.65628 7.20454 22 ft 15 kts 225°
2026-05-01 10:06 43.65555 7.20354 22 ft 14 kts 225°
2026-05-01 10:06 43.65488 7.20262 22 ft 13 kts 225°
2026-05-01 10:06 43.65472 7.20240 22 ft 0 kts 225°
2026-05-01 10:07 43.65439 7.20197 22 ft 10 kts 220°
2026-05-01 10:08 43.65334 7.20219 23 ft 9 kts 136°
2026-05-01 10:08 43.65285 7.20287 22 ft 11 kts 136°
2026-05-01 10:08 43.65272 7.20305 22 ft 0 kts 136°
2026-05-01 10:10 43.65228 7.20367 22 ft 10 kts 124°
2026-05-01 10:11 43.65231 7.20471 24 ft 13 kts 51°
2026-05-01 10:11 43.65278 7.20539 22 ft 0 kts 46°
2026-05-01 10:12 43.65354 7.20647 22 ft 51 kts 46°
2026-05-01 10:12 43.65598 7.20984 24 ft 97 kts 44°
2026-05-01 10:12 43.67158 7.23319 824 ft 151 kts 69°
2026-05-01 10:13 43.67163 7.24709 1436 ft 156 kts 113°
2026-05-01 10:13 43.66679 7.26164 1776 ft 179 kts 107°
2026-05-01 10:13 43.66514 7.27975 2143 ft 204 kts 88°
2026-05-01 10:14 43.66836 7.31951 3902 ft 201 kts 87°
2026-05-01 10:14 43.66904 7.33888 4624 ft 211 kts 86°
2026-05-01 10:14 43.66989 7.35932 5395 ft 215 kts 86°
2026-05-01 10:14 43.67083 7.38021 6162 ft 221 kts 85°
2026-05-01 10:15 43.67172 7.40161 6936 ft 224 kts 84°
2026-05-01 10:15 43.67227 7.42306 7763 ft 224 kts 85°
2026-05-01 10:15 43.67288 7.44493 8454 ft 230 kts 84°
2026-05-01 10:15 43.67353 7.46730 9188 ft 235 kts 86°
2026-05-01 10:16 43.67432 7.48993 9987 ft 237 kts 79°
2026-05-01 10:16 43.67854 7.51297 10315 ft 260 kts 66°
2026-05-01 10:16 43.69357 7.56247 11099 ft 298 kts 65°
2026-05-01 10:17 43.70164 7.59000 11385 ft 321 kts 67°
2026-05-01 10:17 43.71538 7.64043 12028 ft 348 kts 69°
2026-05-01 10:17 43.72371 7.67216 12772 ft 352 kts 69°
2026-05-01 10:18 43.74604 7.73226 14231 ft 357 kts 49°
2026-05-01 10:18 43.76245 7.75806 14964 ft 358 kts 48°
2026-05-01 10:18 43.77904 7.78399 15567 ft 362 kts 48°
2026-05-01 10:19 43.79580 7.81021 16200 ft 366 kts 49°
2026-05-01 10:19 43.81272 7.83668 16883 ft 368 kts 49°
2026-05-01 10:19 43.82974 7.86330 17580 ft 370 kts 49°
2026-05-01 10:20 43.86394 7.91702 18908 ft 374 kts 49°
2026-05-01 10:20 43.88117 7.94416 19471 ft 377 kts 49°
2026-05-01 10:20 43.89701 7.97331 20015 ft 381 kts 57°
2026-05-01 10:20 43.91022 8.00526 20565 ft 384 kts 59°
2026-05-01 10:21 43.92341 8.03761 21109 ft 387 kts 59°
2026-05-01 10:21 43.95007 8.10310 22155 ft 392 kts 59°
2026-05-01 10:21 43.96353 8.13619 22663 ft 395 kts 59°
2026-05-01 10:22 43.99073 8.20298 23644 ft 400 kts 59°
2026-05-01 10:22 44.01824 8.27083 24436 ft 406 kts 59°
2026-05-01 10:23 44.03211 8.30506 24791 ft 409 kts 59°
2026-05-01 10:23 44.06017 8.37438 25572 ft 412 kts 59°
2026-05-01 10:23 44.07423 8.40916 25962 ft 414 kts 59°
2026-05-01 10:24 44.10253 8.47937 26651 ft 418 kts 59°
2026-05-01 10:24 44.13119 8.55051 27268 ft 424 kts 59°
2026-05-01 10:25 44.16013 8.62253 27881 ft 429 kts 59°
2026-05-01 10:25 44.18964 8.69511 28460 ft 432 kts 55°
2026-05-01 10:26 44.20797 8.72822 28764 ft 432 kts 46°
2026-05-01 10:26 44.22981 8.75679 29133 ft 430 kts 37°
2026-05-01 10:26 44.27691 8.80824 29675 ft 432 kts 37°
2026-05-01 10:27 44.32405 8.85987 30316 ft 431 kts 37°
2026-05-01 10:27 44.37111 8.91154 30900 ft 430 kts 37°
2026-05-01 10:28 44.39463 8.93736 31182 ft 429 kts 37°
2026-05-01 10:28 44.44155 8.98886 31770 ft 428 kts 37°
2026-05-01 10:28 44.46499 9.01470 32069 ft 428 kts 37°
2026-05-01 10:29 44.51178 9.06636 32345 ft 428 kts 37°
2026-05-01 10:29 44.53518 9.09222 32373 ft 430 kts 37°
2026-05-01 10:30 44.63083 9.19827 32370 ft 443 kts 37°
2026-05-01 10:31 44.72743 9.30576 32365 ft 443 kts 37°
2026-05-01 10:32 44.79975 9.38662 32380 ft 443 kts 37°
2026-05-01 10:33 44.89600 9.49464 32380 ft 441 kts 38°
2026-05-01 10:34 44.96797 9.57565 32382 ft 441 kts 38°
2026-05-01 10:34 45.01565 9.62944 32372 ft 435 kts 38°
2026-05-01 10:35 45.08637 9.70958 32379 ft 434 kts 38°
2026-05-01 10:35 45.13341 9.76314 32386 ft 434 kts 38°
2026-05-01 10:36 45.20414 9.84360 32392 ft 434 kts 38°
2026-05-01 10:37 45.25108 9.89712 32392 ft 433 kts 38°
2026-05-01 10:37 45.32152 9.97770 32382 ft 434 kts 38°
2026-05-01 10:38 45.36841 10.03160 32382 ft 434 kts 38°
2026-05-01 10:38 45.41529 10.08564 32393 ft 434 kts 38°
2026-05-01 10:39 45.46222 10.13972 32390 ft 434 kts 38°
2026-05-01 10:39 45.50889 10.19357 32380 ft 430 kts 38°
2026-05-01 10:40 45.55525 10.24718 32383 ft 429 kts 38°
2026-05-01 10:40 45.60151 10.30084 32379 ft 429 kts 38°
2026-05-01 10:41 45.64773 10.35466 32393 ft 428 kts 38°
2026-05-01 10:42 45.71672 10.43516 32375 ft 429 kts 38°
2026-05-01 10:42 45.76318 10.48955 32377 ft 428 kts 38°
2026-05-01 10:43 45.80896 10.54325 32372 ft 428 kts 38°
2026-05-01 10:43 45.85502 10.59744 32363 ft 427 kts 39°
2026-05-01 10:44 45.90136 10.65200 32369 ft 429 kts 38°
2026-05-01 10:44 45.94958 10.70227 32368 ft 429 kts 28°
2026-05-01 10:45 46.00201 10.74237 32362 ft 429 kts 28°
2026-05-01 10:45 46.05498 10.78304 32397 ft 428 kts 28°
2026-05-01 10:46 46.10706 10.82318 32387 ft 426 kts 28°
2026-05-01 10:46 46.15936 10.86358 32392 ft 426 kts 28°
2026-05-01 10:47 46.21159 10.90404 32389 ft 425 kts 28°
2026-05-01 10:47 46.26371 10.94449 32388 ft 425 kts 28°
2026-05-01 10:48 46.31576 10.98491 32386 ft 425 kts 28°
2026-05-01 10:48 46.36781 11.02537 32384 ft 425 kts 28°
2026-05-01 10:49 46.42242 11.05709 32342 ft 427 kts 13°
2026-05-01 10:49 46.48215 11.06017 32347 ft 434 kts 360°
2026-05-01 10:50 46.54277 11.05558 32344 ft 438 kts 360°
2026-05-01 10:50 46.60368 11.05118 32345 ft 438 kts
2026-05-01 10:51 46.66456 11.04680 32344 ft 439 kts
2026-05-01 10:51 46.72556 11.04233 32343 ft 438 kts
2026-05-01 10:52 46.78659 11.03794 32329 ft 440 kts 359°
2026-05-01 10:52 46.84781 11.02976 32347 ft 444 kts 355°
2026-05-01 10:53 46.90900 11.01692 32343 ft 444 kts 354°
2026-05-01 10:53 46.97019 11.01217 32353 ft 439 kts
2026-05-01 10:54 47.03101 11.02134 32344 ft 439 kts
2026-05-01 10:54 47.09189 11.03093 32336 ft 441 kts
2026-05-01 10:55 47.15297 11.04031 32339 ft 442 kts
2026-05-01 10:55 47.18361 11.04494 32126 ft 441 kts
2026-05-01 10:55 47.21358 11.04945 30957 ft 429 kts
2026-05-01 10:55 47.24341 11.05398 28911 ft 432 kts
2026-05-01 10:56 47.27341 11.05858 26915 ft 436 kts
2026-05-01 10:56 47.30353 11.06320 25474 ft 431 kts
2026-05-01 10:56 47.33245 11.06757 25050 ft 403 kts
2026-05-01 10:56 47.35995 11.07171 24466 ft 395 kts
2026-05-01 10:57 47.38725 11.07588 23727 ft 393 kts
2026-05-01 10:57 47.41447 11.08012 23001 ft 392 kts
2026-05-01 10:57 47.44147 11.08436 22342 ft 390 kts
2026-05-01 10:57 47.46852 11.08856 21702 ft 388 kts
2026-05-01 10:58 47.49541 11.09272 21075 ft 386 kts
2026-05-01 10:58 47.52180 11.09677 20480 ft 384 kts
2026-05-01 10:58 47.54819 11.10186 19898 ft 381 kts 14°
2026-05-01 10:58 47.57339 11.11279 19329 ft 377 kts 23°
2026-05-01 10:59 47.59687 11.12981 18802 ft 372 kts 32°
2026-05-01 10:59 47.61160 11.14263 18436 ft 371 kts 32°
2026-05-01 10:59 47.63380 11.16194 17901 ft 367 kts 32°
2026-05-01 10:59 47.65570 11.18099 17392 ft 363 kts 32°
2026-05-01 11:00 47.67736 11.19984 16896 ft 359 kts 32°
2026-05-01 11:00 47.70601 11.22474 16230 ft 355 kts 32°
2026-05-01 11:00 47.72008 11.23695 15882 ft 353 kts 32°
2026-05-01 11:00 47.74180 11.25377 15371 ft 352 kts 24°
2026-05-01 11:01 47.76469 11.26666 14821 ft 351 kts 22°
2026-05-01 11:01 47.78756 11.27930 14273 ft 351 kts 22°
2026-05-01 11:01 47.81046 11.29198 13650 ft 350 kts 22°
2026-05-01 11:01 47.83322 11.30463 13066 ft 349 kts 22°
2026-05-01 11:02 47.85588 11.31725 12475 ft 347 kts 22°
2026-05-01 11:02 47.87856 11.32931 11864 ft 346 kts 18°
2026-05-01 11:02 47.90226 11.33589 11285 ft 347 kts
2026-05-01 11:02 47.92591 11.33771 11125 ft 333 kts
2026-05-01 11:03 47.94871 11.33947 10999 ft 318 kts
2026-05-01 11:03 47.97041 11.34127 10877 ft 305 kts
2026-05-01 11:03 47.99118 11.34307 10731 ft 294 kts
2026-05-01 11:03 48.01140 11.34486 10496 ft 289 kts
2026-05-01 11:04 48.03130 11.34665 10274 ft 285 kts
2026-05-01 11:04 48.05041 11.35060 10161 ft 270 kts 20°
2026-05-01 11:04 48.06701 11.36139 10012 ft 257 kts 35°
2026-05-01 11:04 48.08084 11.37813 9881 ft 253 kts 49°
2026-05-01 11:05 48.09146 11.39872 9748 ft 249 kts 56°
2026-05-01 11:05 48.10157 11.41985 9617 ft 249 kts 56°
2026-05-01 11:05 48.11160 11.44097 9483 ft 250 kts 60°
2026-05-01 11:05 48.11907 11.46413 9353 ft 246 kts 73°
2026-05-01 11:06 48.12259 11.48905 9220 ft 244 kts 84°
2026-05-01 11:06 48.12451 11.51425 9093 ft 245 kts 84°
2026-05-01 11:06 48.12649 11.53967 8966 ft 249 kts 84°
2026-05-01 11:07 48.13074 11.59371 8717 ft 265 kts 83°
2026-05-01 11:07 48.13291 11.62115 8592 ft 266 kts 83°
2026-05-01 11:07 48.13508 11.64863 8477 ft 264 kts 83°
2026-05-01 11:07 48.13723 11.67586 8349 ft 263 kts 83°
2026-05-01 11:08 48.13938 11.70312 8223 ft 264 kts 84°
2026-05-01 11:08 48.14154 11.73049 8100 ft 263 kts 83°
2026-05-01 11:08 48.14579 11.78479 7851 ft 262 kts 84°
2026-05-01 11:09 48.14787 11.81199 7724 ft 263 kts 84°
2026-05-01 11:09 48.14993 11.83915 7602 ft 262 kts 84°
2026-05-01 11:09 48.15198 11.86611 7474 ft 261 kts 84°
2026-05-01 11:10 48.15610 11.92023 7224 ft 261 kts 84°
2026-05-01 11:10 48.15813 11.94712 7104 ft 259 kts 84°
2026-05-01 11:10 48.16014 11.97391 6979 ft 258 kts 84°
2026-05-01 11:10 48.16213 12.00062 6852 ft 259 kts 85°
2026-05-01 11:11 48.16418 12.02735 6731 ft 258 kts 83°
2026-05-01 11:11 48.17026 12.05191 6596 ft 259 kts 57°
2026-05-01 11:11 48.18412 12.06977 6454 ft 266 kts 28°
2026-05-01 11:11 48.20241 12.07509 6340 ft 275 kts 360°
2026-05-01 11:12 48.22131 12.07247 6209 ft 277 kts 358°
2026-05-01 11:12 48.24052 12.06858 6074 ft 280 kts 348°
2026-05-01 11:12 48.25791 12.05534 5943 ft 285 kts 320°
2026-05-01 11:12 48.26936 12.03200 5811 ft 275 kts 292°
2026-05-01 11:13 48.27276 12.00469 5680 ft 263 kts 265°
2026-05-01 11:13 48.27088 11.97753 5551 ft 263 kts 262°
2026-05-01 11:13 48.26879 11.95044 5418 ft 261 kts 262°
2026-05-01 11:13 48.26674 11.92334 5295 ft 262 kts 262°
2026-05-01 11:14 48.26469 11.89617 5160 ft 260 kts 262°
2026-05-01 11:14 48.26271 11.86980 5025 ft 249 kts 262°
2026-05-01 11:14 48.26082 11.84448 4928 ft 238 kts 262°
2026-05-01 11:14 48.25897 11.82013 5000 ft 234 kts 262°
2026-05-01 11:15 48.25713 11.79590 5001 ft 234 kts 261°
2026-05-01 11:15 48.25523 11.77135 5008 ft 234 kts 262°
2026-05-01 11:15 48.25334 11.74702 5010 ft 236 kts 261°
2026-05-01 11:15 48.25142 11.72254 5014 ft 236 kts 262°
2026-05-01 11:16 48.24952 11.69827 5009 ft 234 kts 261°
2026-05-01 11:16 48.24762 11.67388 5009 ft 237 kts 261°
2026-05-01 11:16 48.24562 11.64849 5023 ft 263 kts 261°
2026-05-01 11:16 48.24335 11.62006 5015 ft 279 kts 261°
2026-05-01 11:17 48.24104 11.59092 4998 ft 284 kts 262°
2026-05-01 11:17 48.23871 11.56145 5005 ft 283 kts 262°
2026-05-01 11:17 48.23643 11.53228 4999 ft 283 kts 262°
2026-05-01 11:17 48.23410 11.50283 4983 ft 285 kts 262°
2026-05-01 11:18 48.23175 11.47331 4980 ft 285 kts 261°
2026-05-01 11:18 48.23088 11.44348 4985 ft 288 kts 277°
2026-05-01 11:18 48.23709 11.41532 4985 ft 287 kts 302°
2026-05-01 11:18 48.25018 11.39319 4991 ft 284 kts 326°
2026-05-01 11:19 48.26772 11.38086 4984 ft 277 kts 351°
2026-05-01 11:19 48.28671 11.37971 4992 ft 271 kts 13°
2026-05-01 11:19 48.30415 11.38910 4987 ft 266 kts 37°
2026-05-01 11:19 48.31772 11.40699 4997 ft 258 kts 57°
2026-05-01 11:20 48.32592 11.43046 5000 ft 253 kts 74°
2026-05-01 11:20 48.33176 11.45554 4992 ft 255 kts 72°
2026-05-01 11:20 48.33769 11.48071 5005 ft 255 kts 73°
2026-05-01 11:20 48.34210 11.50620 4954 ft 252 kts 82°
2026-05-01 11:21 48.34447 11.53241 4604 ft 253 kts 84°
2026-05-01 11:21 48.34641 11.55866 4244 ft 252 kts 84°
2026-05-01 11:21 48.34842 11.58474 3918 ft 248 kts 84°
2026-05-01 11:21 48.35044 11.61017 3590 ft 244 kts 84°
2026-05-01 11:22 48.35242 11.63523 3265 ft 237 kts 84°
2026-05-01 11:22 48.35429 11.65903 2957 ft 223 kts 84°
2026-05-01 11:22 48.35603 11.68117 2659 ft 200 kts 83°
2026-05-01 11:22 48.35754 11.70061 2435 ft 177 kts 83°
2026-05-01 11:23 48.35892 11.71817 2177 ft 160 kts 84°
2026-05-01 11:23 48.36014 11.73393 1961 ft 143 kts 81°
2026-05-01 11:23 48.36122 11.74823 1737 ft 135 kts 82°
2026-05-01 11:23 48.36238 11.76174 1628 ft 129 kts 82°
2026-05-01 11:24 48.36333 11.77465 1472 ft 114 kts 82°
2026-05-01 11:24 48.36393 11.78272 1462 ft 35 kts 83°
2026-05-01 11:24 48.36394 11.78774 1461 ft 22 kts 109°
2026-05-01 11:25 48.36334 11.78985 1468 ft 22 kts 112°
2026-05-01 11:25 48.36263 11.79226 1463 ft 0 kts 120°
2026-05-01 11:26 48.36240 11.79309 1466 ft 20 kts 102°
2026-05-01 11:26 48.36221 11.79399 1461 ft 0 kts 124°
2026-05-01 11:29 48.36221 11.79400 1461 ft 1 kts 124°
2026-05-01 11:29 48.36169 11.79467 1460 ft 7 kts 168°
2026-05-01 11:30 48.36140 11.79474 1466 ft 0 kts 171°
2026-05-01 11:30 48.36112 11.79480 1465 ft 5 kts 172°
2026-05-01 11:30 48.36081 11.79486 1467 ft 5 kts 174°
2026-05-01 11:31 48.36048 11.79490 1463 ft 5 kts 175°
2026-05-01 11:31 48.36020 11.79494 1467 ft 3 kts 175°
2026-05-01 11:31 48.35999 11.79496 1458 ft 3 kts 175°
2026-05-01 11:31 48.35983 11.79498 1464 ft 2 kts 175°
2026-05-01 11:32 48.35942 11.79505 1461 ft 16 kts 172°
2026-05-01 11:32 48.35827 11.79528 1464 ft 10 kts 173°
2026-05-01 11:32 48.35773 11.79537 1463 ft 7 kts 174°
2026-05-01 11:32 48.35729 11.79545 1463 ft 6 kts 173°
2026-05-01 11:33 48.35692 11.79551 1467 ft 5 kts 173°
2026-05-01 11:33 48.35663 11.79557 1467 ft 4 kts 174°
2026-05-01 11:33 48.35644 11.79568 1461 ft 2 kts 133°
2026-05-01 11:33 48.35645 11.79616 1467 ft 8 kts 82°
2026-05-01 11:34 48.35655 11.79705 1467 ft 3 kts 81°
2026-05-01 11:34 48.35656 11.79713 1467 ft 0 kts 81°